Temp
12 13 13 13 13 13 14 13 13 13 13 13 12 12 12 12 11 10 10 9 9 9 9 9 8 9 9 9 9 10 11 11 11 11 11 11 11 11 11 12 12 10 11
12 13 12 13 13 13 14 13 13 13 13 13 12 12 12 12 11 10 9 9 8 9 9 9 9 10 10 9 9 10 10 11 11 11 10 10 10 11 12 12 12 9 10
11 13 12 13 13 13 14 13 13 13 13 13 13 12 12 12 11 10 9 9 8 9 9 9 10 10 10 10 9 10 10 10 10 10 10 10 10 11 11 10 10 9 9
12 11 12 12 13 13 13 13 12 13 13 13 12 12 12 12 11 10 9 8 8 8 9 9 10 9 9 9 8 9 9 9 10 10 8 9 11 10 9 8 8 9 11
11 11 11 12 12 11 13 13 12 13 12 13 12 12 12 11 11 10 9 9 9 9 9 8 9 9 9 9 9 9 8 9 8 8 8 8 9 9 9 8 8 8 8
11 11 12 12 12 11 12 12 12 12 13 13 12 12 11 11 10 10 10 10 9 9 9 9 9 8 8 9 9 8 9 9 8 8 8 9 9 9 8 8 9 8 8
10 11 11 12 11 10 12 13 12 12 12 12 12 11 10 10 10 10 10 10 9 9 9 9 8 9 8 8 8 8 8 8 9 9 8 8 8 8 9 9 8 8 8
10 11 11 11 11 11 12 12 12 12 12 12 12 11 10 9 10 10 10 10 9 9 9 9 8 9 9 8 8 8 9 8 8 8 9 8 8 7 8 8 7 7 8
10 10 11 11 11 12 11 12 12 12 12 12 12 11 10 9 9 9 10 10 9 8 9 9 9 9 9 8 8 8 8 8 8 8 7 7 7 6 7 7 7 6 7
10 9 10 11 11 12 10 11 12 12 13 12 11 11 13 11 9 9 9 9 9 8 8 9 9 8 8 8 8 7 8 8 7 8 8 7 7 7 7 7 7 7 8
9 11 10 11 11 11 12 11 12 12 12 13 11 11 11 12 11 9 8 8 9 8 7 8 9 8 8 8 8 7 7 8 8 8 7 8 8 7 7 7 7 9 9
8 9 10 11 11 11 10 11 11 11 12 13 12 11 12 12 11 10 10 9 9 8 7 7 8 7 7 7 8 8 7 7 7 7 7 7 7 8 7 7 8 9 10
8 9 10 11 11 11 10 10 11 11 12 12 12 12 12 12 11 10 10 10 9 8 8 8 8 7 7 7 8 8 7 7 7 7 7 7 7 7 7 8 9 9 9
8 9 10 10 10 10 10 10 10 11 11 12 12 12 12 12 12 11 11 11 8 7 8 9 9 8 7 8 8 8 8 8 7 7 7 8 8 7 7 8 9 9 9
6 8 9 10 10 10 10 10 10 10 11 11 12 12 12 12 11 11 11 11 11 7 8 9 10 10 9 8 8 8 8 8 8 7 7 8 8 7 7 7 8 9 9
5 7 10 8 9 9 10 10 10 10 9 10 11 11 11 11 11 11 10 10 11 11 11 11 10 11 10 9 9 8 9 8 9 8 8 7 7 7 7 7 8 8 8
5 6 8 8 9 9 10 10 10 10 9 9 11 10 11 11 11 10 10 10 10 10 10 10 10 11 11 10 9 9 9 9 9 9 8 8 9 8 8 8 8 9 8
4 7 8 8 9 9 9 10 10 10 10 9 10 10 10 11 11 10 10 10 10 10 10 10 10 10 10 11 10 9 9 9 9 9 9 8 9 9 8 9 9 9 9
3 5 8 8 10 9 9 9 9 9 9 10 10 10 11 11 11 10 10 10 10 10 10 10 9 10 11 11 10 9 9 9 9 9 9 9 9 9 9 9 9 9 9
4 5 6 7 9 9 9 9 9 9 9 10 9 10 11 12 12 11 11 10 10 10 10 9 9 9 10 11 11 10 9 9 9 9 9 9 9 9 9 9 9 9 9
3 4 6 7 9 9 9 9 9 9 9 9 9 10 10 11 12 11 11 10 10 10 10 9 9 8 9 9 10 10 10 10 10 9 9 9 9 8 9 9 9 9 9
1 3 4 6 6 7 8 9 8 9 9 9 9 10 10 10 11 11 12 11 11 10 9 10 9 8 9 10 10 10 10 10 9 10 9 10 9 9 9 10 10 10 9
-1 0 2 3 4 5 8 8 8 9 9 9 9 10 9 9 10 10 11 11 11 11 10 10 10 10 10 10 11 10 10 11 11 11 11 10 10 10 10 10 10 10 10
-3 -2 -1 -0 2 3 7 8 8 8 8 9 9 9 9 9 10 9 10 10 10 10 10 10 10 11 11 11 11 11 11 11 10 11 10 10 11 10 10 11 10 10 10
-4 -3 -2 -1 -1 1 3 8 8 8 8 8 8 10 11 9 9 9 10 10 10 10 10 10 10 10 10 10 10 10 9 9 10 10 10 10 10 11 11 11 11 11 10
-6 -5 -4 -3 -2 -1 -0 3 6 7 8 8 8 9 9 9 9 10 9 10 10 10 11 9 9 9 9 10 10 9 10 10 10 10 10 9 10 10 9 11 11 11 11
Height
1481 1494 1501 1503 1508 1512 1515 1519 1524 1529 1533 1536 1538 1540 1543 1545 1547 1547 1547 1552 1554 1555 1555 1555 1556 1557 1559 1560 1561 1562 1564 1566 1566 1565 1566 1566 1566 1566 1565 1565 1567 1568 1569
1476 1489 1498 1499 1505 1507 1511 1515 1521 1527 1531 1535 1536 1538 1543 1544 1546 1548 1547 1550 1553 1556 1557 1557 1559 1560 1561 1561 1562 1563 1565 1567 1568 1567 1568 1568 1567 1567 1567 1567 1567 1569 1570
1478 1481 1491 1494 1497 1501 1505 1510 1516 1525 1528 1534 1536 1537 1542 1543 1545 1547 1548 1548 1552 1556 1558 1559 1560 1562 1562 1563 1562 1563 1566 1568 1569 1569 1569 1569 1568 1568 1569 1569 1570 1570 1571
1469 1477 1482 1484 1488 1492 1500 1503 1510 1519 1524 1528 1536 1536 1540 1543 1544 1547 1548 1547 1551 1555 1558 1559 1561 1562 1563 1563 1564 1565 1567 1568 1571 1571 1570 1570 1569 1570 1571 1572 1572 1572 1573
1461 1467 1473 1475 1475 1482 1492 1498 1506 1513 1519 1523 1533 1536 1538 1543 1544 1547 1549 1549 1551 1555 1558 1559 1561 1563 1564 1565 1565 1565 1567 1569 1571 1572 1572 1573 1572 1573 1573 1574 1575 1576 1575
1452 1459 1463 1471 1469 1483 1488 1493 1501 1508 1515 1520 1528 1533 1536 1541 1544 1548 1549 1550 1551 1554 1557 1558 1560 1563 1564 1565 1566 1567 1568 1569 1571 1572 1574 1575 1576 1576 1576 1577 1577 1578 1579
1445 1449 1454 1462 1465 1470 1485 1486 1495 1501 1510 1517 1523 1529 1535 1539 1542 1546 1549 1549 1551 1553 1556 1556 1559 1562 1564 1565 1566 1568 1569 1569 1571 1573 1574 1575 1577 1578 1579 1579 1579 1579 1582
1431 1439 1444 1453 1462 1468 1474 1481 1488 1493 1503 1509 1515 1521 1529 1537 1538 1542 1545 1547 1549 1552 1555 1556 1558 1561 1563 1565 1566 1568 1570 1571 1572 1572 1573 1575 1576 1577 1579 1581 1581 1581 1582
1428 1431 1434 1441 1448 1457 1466 1474 1480 1482 1492 1503 1509 1511 1519 1524 1529 1538 1540 1544 1547 1550 1553 1556 1558 1560 1563 1564 1566 1568 1569 1570 1572 1573 1574 1574 1576 1577 1579 1581 1581 1581 1582
1418 1424 1428 1431 1441 1448 1455 1465 1475 1478 1484 1492 1502 1508 1512 1513 1519 1531 1535 1539 1543 1546 1550 1553 1555 1558 1561 1563 1566 1567 1569 1569 1571 1573 1574 1575 1577 1578 1579 1580 1581 1582 1583
1409 1410 1416 1422 1431 1437 1446 1458 1467 1473 1476 1484 1491 1498 1504 1508 1516 1522 1526 1530 1537 1541 1546 1549 1552 1555 1558 1561 1564 1566 1568 1569 1571 1573 1574 1575 1577 1578 1579 1581 1581 1582 1584
1397 1405 1407 1409 1420 1425 1437 1451 1455 1466 1467 1477 1487 1492 1495 1499 1505 1515 1520 1525 1531 1536 1540 1544 1547 1551 1554 1557 1561 1564 1567 1569 1571 1573 1575 1576 1578 1579 1579 1581 1582 1583 1584
1393 1398 1401 1399 1410 1416 1425 1438 1448 1459 1463 1470 1479 1486 1492 1498 1503 1512 1516 1519 1523 1529 1534 1538 1542 1546 1551 1553 1557 1561 1564 1567 1570 1572 1574 1576 1578 1578 1580 1581 1582 1584 1585
1383 1387 1393 1391 1403 1415 1421 1429 1440 1451 1459 1466 1475 1480 1486 1494 1500 1507 1511 1515 1521 1524 1527 1531 1536 1540 1545 1549 1553 1558 1561 1564 1567 1569 1573 1576 1577 1579 1580 1581 1582 1584 1585
1377 1382 1392 1398 1403 1410 1411 1421 1429 1442 1453 1460 1468 1473 1481 1488 1494 1502 1508 1511 1514 1517 1520 1525 1529 1534 1539 1544 1549 1554 1557 1561 1564 1567 1570 1573 1576 1577 1579 1580 1582 1583 1585
1375 1381 1385 1398 1401 1405 1408 1416 1424 1434 1445 1452 1461 1467 1474 1481 1489 1496 1501 1506 1510 1514 1516 1519 1524 1529 1534 1539 1544 1549 1553 1557 1560 1563 1566 1569 1571 1574 1576 1578 1580 1581 1583
1374 1379 1384 1392 1396 1399 1403 1409 1417 1426 1433 1445 1454 1460 1468 1474 1481 1488 1494 1499 1504 1508 1513 1515 1520 1525 1529 1534 1539 1543 1548 1551 1555 1558 1562 1565 1567 1569 1571 1574 1576 1578 1580
1369 1374 1379 1384 1391 1395 1399 1402 1409 1419 1426 1437 1446 1453 1461 1466 1474 1481 1486 1491 1497 1503 1508 1511 1514 1517 1522 1528 1534 1538 1543 1546 1550 1554 1557 1559 1562 1565 1567 1569 1571 1573 1576
1363 1368 1372 1378 1379 1390 1393 1399 1407 1411 1418 1429 1438 1445 1452 1458 1465 1472 1478 1484 1490 1497 1502 1505 1509 1512 1516 1521 1526 1532 1537 1541 1545 1549 1552 1555 1557 1560 1562 1564 1566 1568 1571
1359 1361 1369 1373 1375 1382 1387 1394 1398 1402 1411 1419 1430 1437 1445 1448 1456 1463 1470 1477 1484 1490 1496 1500 1504 1506 1510 1515 1520 1523 1527 1532 1538 1542 1545 1549 1552 1554 1557 1558 1560 1563 1565
1354 1356 1360 1365 1369 1376 1381 1387 1391 1395 1404 1412 1422 1431 1438 1442 1450 1455 1462 1468 1475 1482 1488 1493 1496 1499 1502 1504 1506 1511 1519 1527 1530 1535 1539 1542 1544 1547 1550 1552 1554 1556 1559
1354 1356 1358 1358 1369 1373 1373 1377 1385 1391 1398 1405 1412 1422 1431 1437 1442 1448 1455 1461 1467 1473 1478 1484 1488 1490 1495 1499 1502 1506 1513 1517 1522 1526 1532 1535 1538 1540 1544 1546 1548 1551 1554
1360 1360 1359 1364 1367 1366 1370 1372 1378 1382 1389 1400 1408 1415 1421 1429 1435 1442 1448 1454 1459 1466 1472 1477 1479 1482 1487 1492 1497 1500 1505 1510 1512 1519 1524 1524 1529 1532 1537 1540 1543 1546 1548
1362 1362 1364 1363 1363 1365 1367 1371 1379 1385 1390 1396 1401 1406 1413 1421 1426 1434 1440 1446 1450 1456 1461 1468 1473 1478 1482 1487 1491 1495 1499 1505 1509 1512 1515 1516 1521 1524 1531 1533 1536 1539 1541
1365 1362 1361 1360 1361 1362 1363 1369 1375 1378 1384 1389 1394 1399 1406 1411 1418 1426 1431 1437 1442 1445 1453 1460 1466 1472 1476 1480 1486 1489 1490 1495 1497 1501 1506 1511 1513 1518 1521 1525 1529 1532 1534
1371 1371 1368 1368 1366 1369 1369 1368 1371 1374 1378 1383 1388 1392 1396 1402 1406 1414 1420 1427 1431 1435 1442 1451 1456 1462 1467 1472 1476 1477 1483 1485 1489 1493 1496 1501 1506 1511 1513 1515 1519 1523 1526
Wind_Speed
33 38 41 40 38 36 34 34 34 32 28 25 22 17 13 10 11 18 16 11 15 13 11 17 13 14 12 13 12 17 16 16 13 9 7 7 7 9 7 9 14 16 14
39 46 46 45 43 39 37 36 37 33 29 27 23 18 13 11 12 17 17 15 13 15 10 16 14 12 9 8 12 17 18 18 13 8 4 4 3 5 8 12 14 16 14
39 47 47 49 50 44 41 41 39 35 32 27 25 20 16 12 13 17 17 16 14 16 13 15 11 17 16 12 8 16 18 18 15 7 4 4 5 7 10 14 17 17 14
40 49 45 51 57 46 47 46 44 39 35 30 26 22 19 15 12 15 17 16 18 17 17 17 16 14 13 13 9 15 17 15 15 10 5 3 10 14 17 13 15 13 10
44 48 52 42 50 46 48 48 47 43 38 34 29 25 21 16 11 13 16 15 18 12 11 15 14 16 13 12 9 12 14 14 16 11 10 13 13 12 14 17 15 17 16
31 52 50 54 43 45 47 49 49 45 40 37 31 28 24 18 15 17 18 17 15 9 6 10 16 12 10 7 12 8 13 13 14 13 15 16 13 10 11 12 10 12 18
37 44 55 54 47 51 52 49 52 48 42 37 38 32 27 23 19 20 21 22 16 12 7 4 19 15 11 7 15 12 8 10 13 12 16 18 14 15 16 8 11 18 16
39 40 56 55 54 49 51 54 57 51 46 43 44 40 30 26 25 25 25 24 18 14 10 5 18 16 14 11 10 16 13 11 10 9 14 16 13 14 17 13 11 14 15
41 39 53 55 59 56 55 58 60 58 54 48 47 41 25 17 34 28 31 27 22 20 15 11 19 19 18 12 11 13 15 13 14 11 12 13 13 11 13 14 12 12 12
35 42 46 62 57 61 55 61 63 60 57 54 48 41 41 30 34 22 32 30 26 24 20 16 18 24 20 16 13 12 10 14 14 13 13 13 14 12 11 12 11 11 11
36 42 35 67 63 58 59 68 67 62 59 57 56 51 39 31 36 27 28 35 32 27 23 19 17 27 26 20 18 15 10 11 13 16 14 15 13 13 12 11 11 11 11
28 40 33 60 63 59 66 70 66 63 60 58 55 55 50 44 40 39 26 39 38 33 28 23 22 29 24 27 23 20 16 13 14 16 13 14 13 13 13 13 13 11 11
22 27 33 49 60 56 63 68 66 62 61 61 61 56 52 48 41 37 32 32 40 37 33 29 27 30 27 27 26 25 21 16 15 16 16 11 12 14 14 12 12 12 11
23 30 27 15 41 57 63 67 69 64 61 60 63 59 55 52 49 41 35 31 28 32 36 32 31 34 32 30 25 25 23 21 19 18 15 16 15 13 13 13 12 12 11
25 30 30 36 19 36 56 65 65 67 64 61 59 59 58 55 52 46 39 30 25 25 38 37 32 36 35 33 29 27 25 23 23 21 20 19 20 17 16 13 14 13 12
24 33 42 36 36 23 44 60 65 66 55 62 61 60 55 57 54 49 47 41 31 26 24 37 39 36 36 35 31 30 27 26 26 26 22 25 25 23 20 18 17 16 14
25 28 35 39 34 23 49 59 65 60 53 55 62 59 57 56 56 53 49 44 38 32 25 23 34 38 34 37 34 32 29 29 28 28 27 26 21 24 22 21 20 18 17
20 29 28 30 39 36 30 52 60 62 61 56 60 59 58 58 55 55 52 47 43 38 32 30 25 36 39 36 35 34 32 31 30 29 28 28 25 23 23 23 22 21 21
15 22 30 30 30 31 33 34 49 60 57 61 61 61 58 58 57 56 55 52 48 41 35 33 30 27 34 34 39 36 35 33 32 31 30 29 28 27 26 25 24 24 24
13 19 28 23 29 31 29 30 45 60 60 58 61 62 59 56 54 55 54 52 49 45 38 36 33 31 29 38 35 40 41 38 35 34 33 32 31 30 29 28 27 27 25
6 11 18 23 25 22 34 36 49 57 62 57 59 60 58 54 50 50 49 51 49 47 42 39 36 33 34 35 46 41 42 37 38 37 34 34 35 34 32 31 30 29 27
6 5 8 18 18 22 28 40 48 53 54 51 54 58 56 53 49 49 46 46 48 49 47 43 40 39 37 36 36 43 40 43 41 40 37 38 38 37 34 33 31 29 26
12 8 7 10 16 12 26 29 39 46 51 52 53 55 57 52 48 48 45 45 45 47 48 45 44 41 39 37 39 38 43 41 44 40 38 42 40 40 36 34 31 29 28
16 12 10 5 7 9 25 32 27 38 40 49 45 41 41 47 51 49 47 47 47 47 46 48 45 40 38 35 37 35 39 38 40 42 40 42 41 40 36 35 33 31 30
19 17 14 12 9 3 10 28 29 28 38 36 38 32 34 41 40 47 49 51 51 50 47 45 46 41 38 36 32 35 35 40 43 43 42 39 40 35 37 36 34 34 33
20 16 16 15 14 10 9 7 29 30 35 35 27 40 43 45 48 42 49 54 55 54 48 48 45 41 38 37 35 36 37 37 41 41 42 41 39 36 37 36 36 36 35
Wind_Direction
201 218 213 209 205 202 199 196 198 196 192 196 193 203 204 200 183 173 171 176 160 169 143 132 133 134 139 148 138 155 144 142 143 136 120 111 91 84 120 122 129 112 105
210 218 220 214 210 204 202 196 198 198 199 201 196 193 205 199 187 188 178 165 171 152 144 135 135 124 131 112 159 152 151 145 140 145 147 137 97 100 109 119 128 112 116
209 215 223 219 213 204 203 196 196 197 198 201 201 192 206 191 190 202 201 170 172 150 155 141 148 143 140 132 130 146 157 153 150 142 121 118 122 135 112 106 119 131 130
198 218 216 219 222 203 204 196 195 195 197 200 201 195 200 198 173 171 170 164 165 165 160 156 148 156 159 161 151 132 142 158 156 157 130 82 109 95 113 106 116 135 131
208 214 211 203 204 201 201 197 194 197 196 195 199 198 195 192 189 173 175 167 162 162 160 171 174 178 165 156 154 159 152 148 157 149 130 96 95 97 102 116 117 114 99
203 213 219 222 209 208 199 195 193 196 198 195 195 195 184 194 196 191 189 186 183 178 163 193 180 181 174 165 156 161 166 157 154 153 131 122 120 118 98 109 106 126 107
214 217 213 213 205 203 201 198 194 194 197 197 190 187 181 188 193 199 202 197 196 201 199 172 183 188 180 171 169 165 153 157 176 173 172 154 144 135 119 125 104 115 113
230 200 214 219 223 211 201 199 196 192 199 201 195 184 176 188 193 203 206 203 210 218 216 203 185 191 188 185 187 153 171 166 156 171 177 174 154 153 149 140 144 141 136
226 211 211 221 216 215 204 202 199 196 197 200 203 187 169 187 189 200 202 208 210 215 228 221 193 190 197 188 180 171 181 190 166 168 155 162 157 156 159 152 158 139 157
224 214 209 210 217 216 203 208 202 200 200 198 200 200 203 194 179 189 202 210 215 225 234 223 209 202 194 192 194 186 194 187 173 170 166 164 166 156 154 173 157 149 144
220 221 209 215 214 211 209 209 203 200 203 201 203 197 200 197 196 193 195 206 212 219 222 230 221 206 210 198 202 202 194 174 167 182 190 169 166 165 162 157 154 151 145
218 224 228 203 205 207 203 208 204 199 204 205 205 200 203 199 201 202 198 205 212 216 217 224 222 210 206 200 199 205 202 183 183 176 176 179 172 173 166 167 163 152 145
210 207 230 202 210 213 205 206 206 202 207 206 208 209 210 213 212 208 212 211 206 213 218 224 218 208 204 204 199 202 200 197 189 189 184 203 189 184 181 174 168 165 160
198 201 218 218 197 212 206 203 205 207 210 210 212 215 215 216 220 217 221 213 204 213 218 222 214 213 204 208 201 200 204 205 199 196 187 193 212 208 197 189 185 180 177
198 197 220 224 220 209 197 207 206 207 208 211 214 217 221 220 220 222 223 223 225 207 218 219 214 210 208 208 206 207 210 210 208 206 196 199 206 210 211 208 204 201 198
207 204 211 229 222 224 204 209 208 211 205 212 217 219 222 221 221 224 224 228 237 239 237 227 219 215 211 210 209 212 213 214 214 212 207 203 207 215 218 219 216 212 213
207 202 201 208 212 209 208 206 205 212 203 208 216 220 221 222 221 222 225 228 234 236 242 241 228 222 217 215 211 212 213 215 215 215 215 217 217 213 219 222 222 221 221
205 205 199 200 216 217 212 204 213 213 210 209 217 219 219 222 222 224 228 230 234 239 242 239 230 223 220 216 215 215 215 215 217 217 218 219 222 219 220 222 223 225 227
208 200 202 207 209 212 220 229 219 213 216 216 218 222 221 223 224 225 227 231 236 239 238 237 234 228 225 217 217 217 220 221 221 220 222 223 225 225 224 225 227 229 230
197 197 202 202 200 202 227 227 223 216 213 216 221 225 226 226 226 226 228 231 234 234 232 231 232 230 224 220 219 217 218 219 221 222 222 224 226 227 227 227 228 231 233
167 191 198 200 194 203 211 229 210 206 212 214 221 226 227 229 230 232 231 231 231 229 229 226 228 226 221 219 218 216 220 221 224 223 224 225 226 226 226 227 229 230 232
77 170 177 194 198 187 188 195 207 215 217 221 221 226 228 231 233 235 234 234 231 226 225 223 224 226 226 224 224 221 219 220 223 225 224 228 230 230 230 230 230 232 233
55 78 133 164 193 174 187 182 194 205 217 220 230 229 228 230 233 232 234 234 234 233 232 228 227 228 227 225 225 225 223 225 228 227 224 231 230 232 231 233 233 234 233
45 48 61 105 168 202 191 196 197 201 207 225 230 231 243 241 238 232 231 230 231 231 232 232 234 238 238 235 233 234 229 228 232 234 230 234 237 236 236 236 234 235 236
39 36 30 27 31 345 239 210 210 209 201 205 223 227 247 239 238 241 232 230 229 231 232 234 236 238 240 240 238 231 228 226 230 233 234 236 242 241 241 241 239 238 239
42 37 35 30 16 11 354 248 220 219 221 219 217 231 238 235 243 245 234 233 230 230 229 230 229 232 235 235 234 233 232 228 228 233 235 234 239 242 246 244 240 239 240